FW1970 Weather Reports


Display with metric or nautical units.
time (UTC)temp
F
wind
direction
speed
MPH
gust
MPH
rain 1hr
in
rain 24hr
in
rain mn
in
humidity
%
barometer
mb
20260506001520 69 209 8.0 15.0 0.00 0.02 0.02 37 1005.5
20260506000017 69 217 8.0 14.0 0.00 0.02 0.02 37 1005.8
20260505234516 70 203 5.0 14.0 0.00 0.02 0.02 37 1005.4
20260505233018 70 217 8.0 16.0 0.00 0.02 0.02 37 1005.4
20260505231514 70 226 8.0 23.0 0.00 0.02 0.02 37 1005.5
20260505230033 70 215 12.0 21.0 0.00 0.02 0.02 37 1005.4
20260505224512 70 225 10.0 15.0 0.00 0.02 0.02 39 1005.6
20260505223011 70 234 6.0 16.0 0.00 0.02 0.02 39 1005.8
20260505221511 71 225 9.0 19.0 0.00 0.02 0.02 39 1005.7
20260505220009 71 223 11.0 20.0 0.00 0.02 0.02 38 1005.8
20260505214510 71 248 12.0 25.0 0.00 0.02 0.02 38 1005.7
20260505213009 71 209 11.0 25.0 0.00 0.02 0.02 39 1005.6
20260505211508 71 191 9.0 16.0 0.00 0.02 0.02 39 1005.6
20260505210006 71 216 11.0 22.0 0.00 0.02 0.02 39 1005.6
20260505204507 72 211 13.0 22.0 0.00 0.02 0.02 38 1005.6
20260505203005 72 222 8.0 15.0 0.00 0.02 0.02 39 1005.5
20260505201506 72 213 6.0 14.0 0.00 0.02 0.02 38 1005.5
20260505200005 71 200 6.0 12.0 0.00 0.02 0.02 38 1005.8
20260505194502 71 234 9.0 15.0 0.00 0.02 0.02 37 1005.9
20260505193101 71 251 9.0 14.0 0.00 0.02 0.02 37 1006.2
20260505191602 71 254 11.0 19.0 0.00 0.02 0.02 37 1006.1
20260505190059 71 262 10.0 20.0 0.00 0.02 0.02 38 1006.3
20260505184559 70 231 13.0 27.0 0.00 0.02 0.02 38 1006.0
20260505183105 71 269 13.0 25.0 0.00 0.02 0.02 37 1006.2
20260505181557 71 255 18.0 28.0 0.00 0.02 0.02 36 1006.2
20260505180055 71 251 18.0 28.0 0.00 0.02 0.02 37 1006.4
20260505174558 70 254 15.0 29.0 0.00 0.02 0.02 38 1006.6
20260505173054 69 217 15.0 25.0 0.00 0.02 0.02 39 1006.6
20260505171554 69 237 17.0 31.0 0.00 0.02 0.02 38 1006.1
20260505170053 70 222 17.0 31.0 0.00 0.02 0.02 36 1005.8
20260505164600 71 202 16.0 29.0 0.00 0.02 0.02 37 1006.0
20260505163056 70 222 16.0 22.0 0.00 0.02 0.02 38 1006.1
20260505161549 70 232 13.0 27.0 0.00 0.02 0.02 39 1006.3
20260505153051 69 253 8.0 20.0 0.00 0.02 0.02 42 1006.5
20260505151548 69 223 9.0 15.0 0.00 0.02 0.02 42 1006.3
20260505124526 65 241 10.0 19.0 0.00 0.02 0.02 46 1006.8
20260505123018 65 234 9.0 23.0 0.00 0.02 0.02 47 1006.8
20260505121516 64 210 11.0 18.0 0.00 0.02 0.02 48 1006.8
20260505120014 64 195 7.0 16.0 0.00 0.02 0.02 48 1006.7
20260505114529 64 277 7.0 16.0 0.00 0.02 0.02 48 1006.8
20260505113013 64 221 7.0 17.0 0.00 0.02 0.02 48 1006.8
20260505111507 63 188 10.0 20.0 0.00 0.02 0.02 48 1006.6
20260505101602 63 225 13.0 20.0 0.00 0.02 0.02 49 1005.9
20260505100056 62 202 8.0 18.0 0.00 0.02 0.02 51 1005.7
20260505094601 62 229 6.0 18.0 0.00 0.02 0.02 52 1005.7
20260505093052 62 219 7.0 17.0 0.00 0.02 0.02 52 1005.4
20260505091558 62 202 7.0 14.0 0.00 0.02 0.02 52 1005.5
20260505090057 61 225 7.0 14.0 0.00 0.02 0.02 53 1005.6
20260505084551 61 224 7.0 14.0 0.00 0.02 0.02 54 1005.4
20260505083052 61 187 5.0 11.0 0.00 0.02 0.02 55 1005.6
20260505081558 61 231 4.0 14.0 0.00 0.02 0.02 55 1005.5
20260505080049 61 227 6.0 16.0 0.01 0.02 0.02 55 1005.1
20260505074604 61 204 5.0 16.0 0.01 0.02 0.02 55 1005.2
20260505073040 61 232 8.0 14.0 0.02 0.02 0.02 55 1005.2
20260505071539 61 163 7.0 18.0 0.02 0.02 0.02 55 1005.1
20260505070038 61 196 9.0 16.0 0.01 0.01 0.01 54 1005.5
20260505064536 63 208 8.0 22.0 0.01 0.01 0.01 50 1005.3
20260505063039 65 261 10.0 16.0 0.00 0.00 0.00 45 1005.7
20260505061533 64 199 6.0 12.0 0.00 0.00 0.00 45 1005.3
20260505060027 64 231 4.0 13.0 0.00 0.00 0.00 45 1005.6
20260505054528 64 196 7.0 14.0 0.00 0.00 0.00 46 1005.6
20260505053020 64 219 6.0 14.0 0.00 0.00 0.00 46 1005.8
20260505051518 63 242 6.0 12.0 0.00 0.00 0.00 46 1005.8
20260505041511 63 169 5.0 11.0 0.00 0.00 0.00 46 1006.1
20260505040013 63 192 5.0 11.0 0.00 0.00 0.00 46 1006.0
20260505034507 63 183 5.0 10.0 0.00 0.00 0.00 46 1006.0
20260505033008 64 185 4.0 9.0 0.00 0.00 0.00 46 1006.0
20260505031505 64 195 3.0 9.0 0.00 0.00 0.00 45 1006.0
20260505030005 64 207 5.0 14.0 0.00 0.00 0.00 45 1006.2
20260505024510 65 199 4.0 11.0 0.00 0.00 0.00 45 1006.1
20260505023003 65 211 5.0 9.0 0.00 0.00 0.00 45 1006.2
20260505021513 65 213 6.0 12.0 0.00 0.00 0.00 44 1006.3
20260505020002 65 261 6.0 15.0 0.00 0.00 0.00 44 1006.5
20260505014501 66 209 5.0 18.0 0.00 0.00 0.00 43 1006.3
20260505013103 66 197 6.0 15.0 0.00 0.00 0.00 43 1006.2
20260505011600 66 236 6.0 13.0 0.00 0.00 0.00 43 1006.1
20260505010059 66 209 4.0 14.0 0.00 0.00 0.00 42 1005.9
20260505004604 67 200 4.0 13.0 0.00 0.00 0.00 42 1005.6
20260505003057 67 200 8.0 17.0 0.00 0.00 0.00 41 1005.7